Total_Precipitation_Accumulation
0.00 0.00 0.00 0.00 0.00 0.00 0.00 0.00 0.00 0.00 0.00 0.00 0.00 0.00 0.00 0.00 0.00 0.00 0.00 0.00 0.00 0.00 0.00 0.01 0.01 0.02 0.03 0.03 0.04 0.04 0.05 0.06 0.08 0.12 0.17 0.24 0.39 0.57
0.00 0.00 0.00 0.00 0.00 0.00 0.00 0.00 0.00 0.00 0.00 0.00 0.00 0.00 0.00 0.00 0.00 0.00 0.00 0.00 0.00 0.00 0.00 0.01 0.02 0.03 0.03 0.03 0.04 0.04 0.05 0.05 0.06 0.09 0.12 0.16 0.21 0.29
0.00 0.00 0.00 0.00 0.00 0.00 0.00 0.00 0.00 0.00 0.00 0.00 0.00 0.00 0.00 0.00 0.00 0.00 0.00 0.00 0.00 0.00 0.00 0.01 0.02 0.03 0.04 0.03 0.03 0.04 0.04 0.06 0.08 0.11 0.14 0.16 0.19 0.21
0.00 0.00 0.00 0.00 0.00 0.00 0.00 0.00 0.00 0.00 0.00 0.01 0.00 0.00 0.00 0.00 0.00 0.00 0.00 0.00 0.00 0.00 0.01 0.02 0.02 0.02 0.03 0.03 0.05 0.06 0.08 0.09 0.11 0.11 0.11 0.11 0.13 0.16
0.00 0.00 0.00 0.00 0.00 0.00 0.00 0.00 0.00 0.00 0.01 0.02 0.01 0.00 0.00 0.00 0.01 0.00 0.00 0.00 0.00 0.00 0.00 0.01 0.01 0.03 0.05 0.07 0.09 0.10 0.10 0.09 0.07 0.06 0.06 0.06 0.07 0.09
0.00 0.00 0.00 0.00 0.00 0.00 0.00 0.00 0.01 0.01 0.01 0.02 0.03 0.03 0.03 0.02 0.01 0.01 0.00 0.00 0.00 0.00 0.00 0.01 0.03 0.06 0.07 0.07 0.06 0.04 0.03 0.04 0.05 0.06 0.07 0.08 0.07 0.06
0.00 0.00 0.00 0.00 0.00 0.00 0.01 0.02 0.02 0.03 0.05 0.09 0.10 0.08 0.05 0.02 0.01 0.00 0.01 0.01 0.00 0.01 0.02 0.03 0.03 0.02 0.01 0.01 0.01 0.02 0.04 0.07 0.10 0.11 0.10 0.09 0.07 0.06
0.00 0.00 0.00 0.00 0.00 0.00 0.01 0.03 0.05 0.08 0.13 0.17 0.14 0.08 0.02 0.01 0.01 0.02 0.04 0.06 0.03 0.01 0.03 0.02 0.01 0.01 0.00 0.01 0.02 0.05 0.07 0.09 0.09 0.08 0.07 0.06 0.04 0.04
0.00 0.00 0.00 0.00 0.00 0.00 0.01 0.03 0.06 0.10 0.12 0.10 0.06 0.02 0.01 0.02 0.05 0.07 0.07 0.06 0.04 0.01 0.03 0.03 0.02 0.02 0.01 0.02 0.03 0.04 0.05 0.07 0.08 0.09 0.08 0.07 0.05 0.04
0.00 0.00 0.00 0.00 0.01 0.02 0.04 0.06 0.05 0.04 0.03 0.02 0.01 0.02 0.03 0.03 0.05 0.06 0.05 0.05 0.03 0.02 0.04 0.05 0.02 0.02 0.01 0.01 0.02 0.03 0.05 0.10 0.13 0.13 0.10 0.08 0.05 0.03
0.00 0.00 0.01 0.01 0.02 0.06 0.08 0.10 0.05 0.01 0.00 0.01 0.03 0.03 0.03 0.02 0.02 0.05 0.10 0.12 0.08 0.02 0.02 0.04 0.03 0.02 0.02 0.01 0.01 0.03 0.05 0.06 0.06 0.05 0.05 0.04 0.03 0.03
0.00 0.00 0.01 0.02 0.05 0.09 0.09 0.08 0.03 0.01 0.02 0.02 0.01 0.00 0.00 0.00 0.01 0.04 0.13 0.22 0.15 0.07 0.01 0.04 0.06 0.07 0.09 0.02 0.01 0.01 0.02 0.03 0.05 0.06 0.06 0.05 0.04 0.03
0.01 0.01 0.01 0.04 0.08 0.09 0.05 0.01 0.02 0.04 0.02 0.01 0.00 0.00 0.00 0.01 0.01 0.02 0.06 0.19 0.26 0.16 0.03 0.11 0.17 0.09 0.10 0.05 0.01 0.00 0.02 0.09 0.15 0.17 0.19 0.18 0.16 0.11
0.02 0.01 0.03 0.06 0.06 0.03 0.01 0.01 0.03 0.03 0.00 0.00 0.01 0.01 0.01 0.01 0.01 0.01 0.02 0.04 0.11 0.16 0.09 0.17 0.27 0.17 0.15 0.08 0.02 0.01 0.02 0.13 0.28 0.31 0.31 0.33 0.31 0.25
0.03 0.05 0.06 0.04 0.01 0.00 0.00 0.01 0.01 0.00 0.01 0.03 0.03 0.02 0.01 0.02 0.02 0.02 0.02 0.01 0.02 0.03 0.06 0.14 0.23 0.18 0.13 0.09 0.03 0.02 0.07 0.11 0.25 0.32 0.34 0.36 0.38 0.33
0.04 0.05 0.03 0.00 0.00 0.00 0.00 0.00 0.00 0.00 0.03 0.05 0.05 0.03 0.02 0.02 0.03 0.05 0.08 0.07 0.07 0.04 0.03 0.08 0.12 0.13 0.09 0.05 0.06 0.08 0.14 0.19 0.24 0.30 0.36 0.39 0.42 0.45
0.04 0.01 0.00 0.00 0.00 0.00 0.00 0.00 0.00 0.01 0.02 0.04 0.06 0.06 0.04 0.04 0.04 0.06 0.11 0.13 0.15 0.11 0.07 0.04 0.05 0.05 0.07 0.11 0.12 0.14 0.19 0.25 0.34 0.34 0.34 0.35 0.43 0.56
0.02 0.00 0.00 0.00 0.01 0.01 0.01 0.01 0.01 0.02 0.04 0.06 0.07 0.08 0.08 0.08 0.07 0.06 0.10 0.15 0.14 0.11 0.11 0.10 0.07 0.05 0.07 0.11 0.17 0.24 0.24 0.31 0.35 0.32 0.29 0.26 0.37 0.49
0.00 0.01 0.01 0.01 0.01 0.01 0.01 0.02 0.03 0.03 0.05 0.07 0.09 0.10 0.10 0.09 0.09 0.09 0.10 0.10 0.09 0.09 0.11 0.12 0.11 0.11 0.10 0.10 0.12 0.27 0.33 0.32 0.27 0.24 0.26 0.25 0.35 0.45
0.01 0.01 0.01 0.01 0.01 0.02 0.03 0.05 0.06 0.05 0.05 0.06 0.07 0.07 0.08 0.08 0.09 0.09 0.09 0.10 0.09 0.07 0.07 0.07 0.08 0.13 0.15 0.16 0.17 0.31 0.34 0.27 0.18 0.19 0.25 0.27 0.35 0.38
0.01 0.01 0.01 0.01 0.02 0.04 0.06 0.07 0.07 0.07 0.06 0.06 0.06 0.05 0.06 0.08 0.08 0.07 0.07 0.06 0.06 0.07 0.07 0.07 0.06 0.07 0.10 0.09 0.12 0.23 0.32 0.28 0.17 0.14 0.14 0.16 0.22 0.23
0.01 0.01 0.01 0.01 0.04 0.07 0.08 0.07 0.06 0.05 0.04 0.04 0.05 0.05 0.06 0.08 0.09 0.08 0.07 0.07 0.07 0.08 0.07 0.05 0.03 0.03 0.04 0.06 0.09 0.13 0.17 0.18 0.14 0.11 0.12 0.12 0.15 0.24
0.01 0.02 0.01 0.03 0.06 0.08 0.07 0.05 0.04 0.03 0.04 0.05 0.05 0.05 0.07 0.09 0.09 0.08 0.06 0.06 0.06 0.06 0.05 0.03 0.02 0.02 0.03 0.04 0.05 0.06 0.06 0.06 0.05 0.06 0.12 0.13 0.13 0.17